Regional Weather Roundup
Issued by NWS Albany, NY

Home | Current Version | Previous Version | Text Only | Print | Product List | Glossary On
Versions: 1 2 3 4 5 6 7 8 9 10 11 12 13 14 15 16 17 18 19 20 21 22 23 24 25 26 27 28 29 30 31 32 33 34 35 36 37 38 39 40 41 42 43 44 45 46 47 48 49 50
000
ASUS41 KALY 220010
RWRALY

NEW YORK STATE HOURLY WEATHER ROUNDUP
NATIONAL WEATHER SERVICE ALBANY NY
800 PM EDT SUN SEP 21 2014

NOTE: "FAIR" INDICATES FEW OR NO CLOUDS BELOW 12,000 FEET WITH NO
SIGNIFICANT WEATHER AND/OR NO OBSTRUCTIONS TO VISIBILITY.

NYZ032-033-038>043-046>054-057>066-NYZ062>081-220100-
EAST


CITY           SKY/WX    TMP DP  RH WIND       PRES   REMARKS
ALBANY         MOCLDY    75  65  70 S10       29.58F
GLENS FALLS    MOCLDY    73  63  70 S7        29.57F
POUGHKEEPSIE   MOCLDY    67  65  93 SE5       29.60R
NEWBURGH       PTCLDY    70  68  94 CALM      29.63S
MONTGOMERY     PTCLDY    70  64  81 CALM      29.61R
WHITE PLAINS   CLOUDY    68  66  93 CALM      29.63R FOG
ISLIP          MOCLDY    70  67  90 SW3       29.60R
NEW YORK CITY  MOCLDY    74  66  76 S7        29.62R
CENTRAL PARK   MOCLDY    72  65  78 VRB3      29.65R
$$

NYZ005>009-017-018-044>046-055-056-220100-
CENTRAL


CITY           SKY/WX    TMP DP  RH WIND       PRES   REMARKS
FULTON         PTCLDY    64  58  80 S7        29.61R
SYRACUSE       MOCLDY    63  60  90 E5        29.62R
ROME           LGT RAIN  59  58  96 E6        29.63S
ELMIRA         CLOUDY    64  62  93 SW3       29.65R
BINGHAMTON     CLOUDY    63  61  93 W3        29.67R
MONTICELLO     PTCLDY    66  57  72 S6        29.66S
$$

NYZ026>034-041>043-220100-
NORTH


CITY           SKY/WX    TMP DP  RH WIND       PRES   REMARKS
WATERTOWN      MOCLDY    68  57  68 SW8       29.57R
FORT DRUM      NOT AVBL
MASSENA        MOCLDY    66  62  87 S10       29.54R
SARANAC LAKE   CLOUDY    61  60  97 SW3       29.61R
PLATTSBURGH    HVY RAIN  68  63  84 VRB5      29.55R
$$

NYZ001>004-010>016-019>021-220100-
WEST


CITY           SKY/WX    TMP DP  RH WIND       PRES   REMARKS
NIAGARA FALLS  MOCLDY    63  53  70 SW10      29.63R
BUFFALO        LGT RAIN  65  54  67 W16G25    29.63S
DUNKIRK        CLOUDY    64  52  64 W16G29    29.68R
JAMESTOWN      MOCLDY    57  48  72 W15G23    29.72S
WELLSVILLE     PTCLDY    59  50  72 W10G17    29.72R
ROCHESTER      PTCLDY    66  52  60 W12       29.61S
PENN YAN       CLEAR     65  51  60 W13G20    29.65R
$$

             KEY
       WCI = WIND CHILL INDEX
       VSB = VISIBILITY
       HX  = HEAT INDEX
$$


USA.gov is the U.S. government's official web portal to all federal, state and local government web resources and services.